Regional Weather Roundup
Issued by NWS

Home | Current Version | Previous Version | Text Only | Print | Product List | Glossary On
Versions: 1 2 3 4 5 6 7 8 9 10 11 12 13 14 15 16 17 18 19 20 21 22 23 24 25 26 27 28 29 30 31 32 33 34 35 36 37 38 39 40 41 42 43 44 45 46 47 48 49 50
000
ASUS43 KDMX 140408
RWRIA

WEATHER ROUNDUP FOR IOWA
NATIONAL WEATHER SERVICE DES MOINES IA
1000 PM CST SAT FEB 13 2016

NOTE: "FAIR" INDICATES FEW OR NO CLOUDS BELOW 12,000 FEET WITH NO
SIGNIFICANT WEATHER AND/OR OBSTRUCTIONS TO VISIBILITY.

* - THESE STATIONS ARE NOT NWS STATIONS...THUS NOT UNDER NWS
QUALITY CONTROL.  THEY ALSO DO NOT REPORT WEATHER SUCH
AS PRECIPITATION OR FOG.

IAZ001>003-012>014-020>022-031>034-043>046-140500-
   NORTHWEST IOWA

CITY           SKY/WX    TMP DP  RH WIND       PRES   REMARKS
CARROLL *      CLOUDY    12  10  92 SE18      30.25F WCI  -5
CHEROKEE *     LGT SNOW  12   9  85 SE14G20   30.20F WCI  -3
DENISON *      CLOUDY    14  10  85 SE10G16   30.20S WCI   1
LE MARS *      CLOUDY    14  10  85 SE10G17   30.19F WCI   1
ORANGE CITY *  CLOUDY    10   9  92 SE9G17    30.16S FOG     WCI  -2
SHELDON *      LGT SNOW  10   9  92 SE17G30   30.14F VSB 1   WCI  -7
SIOUX CITY     CLOUDY    18   7  62 SE17      30.17F WCI   3
SPENCER        LGT SNOW  10   5  80 SE17      30.22F VSB 1   WCI  -8
STORM LAKE *   CLOUDY    10   9  92 SE17G23   30.19F FOG     WCI  -7
$$

IAZ055>058-069>071-079>083-090>094-140500-
   SOUTHWEST IOWA

CITY           SKY/WX    TMP DP  RH WIND       PRES   REMARKS
ATLANTIC *     CLOUDY    18   5  57 SE12G18   30.25F WCI   5
AUDUBON *      CLOUDY    16  10  79 SE14      30.23F WCI   1
CLARINDA *     CLOUDY    19   1  45 SE10      30.26F WCI   8
COUNCIL BLFS * CLOUDY    18   5  57 SE20      30.20F WCI   1
CRESTON *      CLOUDY    16   7  67 SE14      30.28R WCI   1
HARLAN  *      CLOUDY    18   7  62 SE13      30.26F WCI   4
LAMONI         CLOUDY    17   5  59 SE8       30.29F WCI   7
RED OAK *      CLOUDY    19   1  45 SE14      30.24F WCI   6
SHENANDOAH *   CLOUDY    19   1  45 SE15      30.25F WCI   5
$$

IAZ047>049-059>061-072>074-084-140500-
   CENTRAL IOWA

CITY           SKY/WX    TMP DP  RH WIND       PRES   REMARKS
AMES           LGT SNOW  13   9  84 SE13      30.32F VSB 1   WCI  -2
ANKENY *       MOCLDY    14  10  85 SE9       30.33F FOG     WCI   2
BOONE *        LGT SNOW  12   9  85 SE16G22   30.29F VSB 1   WCI  -4
CHARITON *     CLOUDY    14   9  79 SE14G21   30.31F WCI  -1
DES MOINES     LGT SNOW  14   9  80 SE10      30.33F WCI   1
GRINNELL*      LGT SNOW  14  12  92 SE12      30.35F VSB 1   WCI   0
KNOXVILLE *    LGT SNOW  14   9  79 SE10      30.33F WCI   1
MARSHALLTOWN   CLOUDY    16   3  56 SE14      30.35S WCI   2
NEWTON *       LGT SNOW  14  12  92 SE13      30.34F VSB 1   WCI   0
PELLA *        LGT SNOW  14  12  92 SE8       30.36F WCI   3
$$

IAZ004>006-015-016-023>025-035-036-140500-
   NORTH CENTRAL IOWA

CITY           SKY/WX    TMP DP  RH WIND       PRES   REMARKS
ALGONA *       LGT SNOW  12   7  79 SE16      30.27F VSB 1   WCI  -4
CLARION *      CLOUDY    10   3  72 SE16      30.30F WCI  -7
ESTHERVILLE    LGT SNOW   9   5  84 SE23      30.23F FOG     WCI -11
FORT DODGE *   CLOUDY    12   5  73 SE9       30.29F WCI   0
MASON CITY     CLOUDY     8  -2  63 SE13      30.33F WCI  -8
FOREST CITY *  CLOUDY    10   3  72 SE10      30.30F WCI  -3
WEBSTER CITY * LGT SNOW  14  10  85 SE16      30.28F WCI  -2
IOWA FALLS *   CLOUDY    14   7  73 SE12      30.34S WCI   0
$$

IAZ007>011-017>019-026>030-037>042-050>054-066-140500-
   NORTHEAST IOWA

CITY           SKY/WX    TMP DP  RH WIND       PRES   REMARKS
CEDAR RAPIDS   CLOUDY    16   1  51 SE9       30.38F WCI   4
CHARLES CITY * CLOUDY     9  -4  56 SE10      30.36F WCI  -6
CLINTON *      CLOUDY    13   2  61 E9        30.44F WCI   1
DUBUQUE        CLOUDY     9  -2  61 E6        30.39F WCI  -1
MONTICELLO *   CLOUDY    14   0  52 E7        30.40F WCI   4
OELWEIN *      CLOUDY    10   0  61 SE12      30.37F WCI  -4
WATERLOO       CLOUDY    12   0  58 SE9       30.38S WCI   0
$$

IAZ064-065-067-068-078-140500-
   EAST CENTRAL IOWA

CITY           SKY/WX    TMP DP  RH WIND       PRES   REMARKS
DAVENPORT      CLOUDY    17  -3  41 SE12      30.43F WCI   4
IOWA CITY      CLOUDY    17  -2  43 SE12      30.42F WCI   4
MT. PLEASANT * LGT SNOW  21   9  58 SE12      30.40F WCI   9
MUSCATINE *    CLOUDY    19  -2  38 SE9       30.43F WCI   9
QUAD CITIES    CLOUDY    17  -1  45 SE8       30.44F WCI   7
$$

IAZ062-063-075>077-085>089-095>099-140500-
   SOUTHEAST IOWA

CITY           SKY/WX    TMP DP  RH WIND       PRES   REMARKS
BURLINGTON     CLOUDY    19   3  49 SE8       30.41F WCI   9
FAIRFIELD *    LGT SNOW  16  10  79 SE8       30.38F VSB 1   WCI   5
FORT MADISON * LGT SNOW  18  10  73 SE8       30.41F WCI   7
KEOKUK *       LGT SNOW  18  12  79 SE8       30.40F WCI   7
OSKALOOSA *    LGT SNOW  14  12  92 SE9       30.38S WCI   2
CENTERVILLE *  CLOUDY    14   9  79 E9        30.35S WCI   2
OTTUMWA        LGT SNOW  15  12  88 SE9       30.37F FOG     WCI   3
WASHINGTON *   CLOUDY    18   3  53 SE10G16   30.41S WCI   6
$$

ABBREVIATIONS USED IN REMARKS
   TC - TEMPERATURES IN CELSIUS
  WCI - WIND CHILL INDEX
   HX - HEAT INDEX
  VSB - VISIBILITY
$$




USA.gov is the U.S. government's official web portal to all federal, state and local government web resources and services.